KINEIS-2E

Last updated on Thu Sep 24 2026 00:03:12 GMT+0000 (Coordinated Universal Time)

1 62931U 25028D 26266.38030653 .00000752 00000+0 11320-3 0 9991 2 62931 97.8860 315.8880 0001267 119.4663 240.6674 14.77223391 87272
UTC large
Height (km)
Speed (km/s)
/
Latitude / Longitude
Inclination (degrees)
Orbital Period (minutes)
Azimuth
Elevation
Range (km)
Doppler Factor

Next 0 passes for location: London (51.5072 / 0.1276)

No passes found over London.
KINEIS-2E